User: anonymous   Login
Location: Hat Ranch Observatory
(35.4668°N, 106.0752°W)
Time: 06:52:36
(UTC-06:00)
Language:

ISS - Orbit

View from above orbital plane
View from above orbital plane
View from above satellite
View from above satellite

Ground track
Ground track

The orbit data is extracted from the following two-line orbital elements,

1 25544U 98067A   22138.35677200  .00009783  00000-0  18232-3 0  9992
2 25544  51.6429 124.3175 0004984 131.6431  28.3696 15.49495649340553
Epoch (UTC): 18 May 2022 08:33:45
Eccentricity: 0.0004984
inclination: 51.6429°
perigee height: 415 km
apogee height: 421 km
right ascension of ascending node: 124.3175°
argument of perigee: 131.6431°
revolutions per day: 15.49495649
mean anomaly at epoch: 28.3696°
orbit number at epoch: 34055

The dashed part of the orbit path shows where the satellite is in the earth's shadow,  

DLR